GW6532 Weather Reports


Display with metric or nautical units.
time (UTC)temp
F
wind
direction
speed
MPH
gust
MPH
rain 1hr
in
rain 24hr
in
rain mn
in
humidity
%
barometer
mb
20260906123608 78 359 0.0 2.0 0.00 0.00 0.00 85 1014.9
20260906123103 77 320 1.0 2.0 0.00 0.00 0.00 87 1014.8
20260906122602 76 349 2.0 3.0 0.00 0.00 0.00 88 1014.8
20260906122058 76 342 0.0 2.0 0.00 0.00 0.00 88 1014.6
20260906121554 76 295 0.0 1.0 0.00 0.00 0.00 88 1014.6
20260906121050 75 284 0.0 2.0 0.00 0.00 0.00 88 1014.7
20260906120545 75 2 0.0 2.0 0.00 0.00 0.00 88 1014.6
20260906120042 75 333 0.0 2.0 0.00 0.00 0.00 88 1014.6
20260906115542 75 294 0.0 2.0 0.00 0.00 0.00 88 1014.4
20260906115037 75 280 0.0 1.0 0.00 0.00 0.00 88 1014.3
20260906114531 75 300 0.0 1.0 0.00 0.00 0.00 88 1014.5
20260906114027 74 259 1.0 1.0 0.00 0.00 0.00 88 1014.2
20260906113525 74 273 0.0 1.0 0.00 0.00 0.00 88 1014.2
20260906113021 74 317 1.0 2.0 0.00 0.00 0.00 88 1014.0
20260906112516 74 274 1.0 1.0 0.00 0.00 0.00 88 1014.0
20260906112013 74 292 0.0 1.0 0.00 0.00 0.00 88 1013.9
20260906111512 74 300 0.0 1.0 0.00 0.00 0.00 88 1013.9
20260906111008 74 323 0.0 1.0 0.00 0.00 0.00 88 1013.8
20260906110502 74 351 0.0 2.0 0.00 0.00 0.00 88 1013.7
20260906110000 74 300 0.0 2.0 0.00 0.00 0.00 88 1013.6
20260906105457 74 266 0.0 1.0 0.00 0.00 0.00 88 1013.7
20260906104953 75 292 1.0 1.0 0.00 0.00 0.00 88 1013.6
20260906104451 74 321 0.0 2.0 0.00 0.00 0.00 88 1013.5
20260906103950 74 63 0.0 2.0 0.00 0.00 0.00 88 1013.7
20260906103449 75 349 0.0 1.0 0.00 0.00 0.00 88 1013.3
20260906102944 75 300 0.0 2.0 0.00 0.00 0.00 88 1013.3
20260906102439 75 281 0.0 1.0 0.00 0.00 0.00 88 1013.3
20260906101939 74 300 0.0 0.0 0.00 0.00 0.00 88 1013.2
20260906101434 74 7 0.0 1.0 0.00 0.00 0.00 88 1013.1
20260906100929 74 321 0.0 1.0 0.00 0.00 0.00 87 1013.1
20260906100424 74 300 0.0 1.0 0.00 0.00 0.00 87 1013.1
20260906095924 75 340 0.0 2.0 0.00 0.00 0.00 87 1013.2
20260906095419 75 327 1.0 2.0 0.00 0.00 0.00 87 1013.0
20260906094914 75 300 0.0 2.0 0.00 0.00 0.00 87 1013.1
20260906094409 75 300 0.0 1.0 0.00 0.00 0.00 87 1012.9
20260906093905 75 346 0.0 2.0 0.00 0.00 0.00 87 1012.8
20260906093401 75 306 1.0 1.0 0.00 0.00 0.00 87 1013.0
20260906092901 75 311 1.0 1.0 0.00 0.00 0.00 87 1012.8
20260906092400 75 311 1.0 1.0 0.00 0.00 0.00 86 1013.0
20260906091856 75 340 0.0 0.0 0.00 0.00 0.00 86 1012.8
20260906091352 75 284 0.0 2.0 0.00 0.00 0.00 86 1012.8
20260906090848 75 279 1.0 2.0 0.00 0.00 0.00 86 1012.7
20260906090347 75 326 1.0 2.0 0.00 0.00 0.00 86 1012.8
20260906085842 75 284 1.0 2.0 0.00 0.00 0.00 86 1012.9
20260906085341 75 305 1.0 2.0 0.00 0.00 0.00 86 1012.6
20260906084836 75 289 0.0 0.0 0.00 0.00 0.00 86 1012.7
20260906084336 75 222 0.0 1.0 0.00 0.00 0.00 86 1012.8
20260906083830 75 4 0.0 2.0 0.00 0.00 0.00 85 1012.6
20260906083327 76 319 2.0 2.0 0.00 0.00 0.00 85 1012.7
20260906082826 76 297 0.0 2.0 0.00 0.00 0.00 85 1012.6
20260906082321 76 318 2.0 2.0 0.00 0.00 0.00 85 1012.7
20260906081817 76 316 0.0 2.0 0.00 0.00 0.00 84 1012.8
20260906081313 77 327 2.0 2.0 0.00 0.00 0.00 84 1012.7
20260906080809 77 300 0.0 2.0 0.00 0.00 0.00 84 1012.7
20260906080305 77 281 0.0 2.0 0.00 0.00 0.00 83 1012.9
20260906075804 77 276 0.0 2.0 0.00 0.00 0.00 83 1012.7
20260906075306 77 234 1.0 1.0 0.00 0.00 0.00 83 1012.8
20260906074759 77 224 1.0 1.0 0.00 0.00 0.00 83 1012.5
20260906074259 77 256 1.0 2.0 0.00 0.00 0.00 84 1012.6
20260906073759 77 277 0.0 2.0 0.00 0.00 0.00 84 1012.4
20260906073259 77 278 1.0 2.0 0.00 0.00 0.00 84 1012.7
20260906072755 77 280 0.0 1.0 0.00 0.00 0.00 84 1012.4
20260906072250 77 332 0.0 1.0 0.00 0.00 0.00 83 1012.5
20260906071746 77 4 0.0 1.0 0.00 0.00 0.00 83 1012.4
20260906071246 77 16 0.0 1.0 0.00 0.00 0.00 83 1012.4
20260906070743 77 335 0.0 1.0 0.00 0.00 0.00 82 1012.4
20260906070238 77 278 1.0 1.0 0.00 0.00 0.00 82 1012.6
20260906065737 77 274 0.0 1.0 0.00 0.00 0.00 82 1012.5
20260906065233 78 300 0.0 1.0 0.00 0.00 0.00 81 1012.6
20260906064728 78 305 0.0 1.0 0.00 0.00 0.00 80 1012.8
20260906064224 78 293 2.0 2.0 0.00 0.00 0.00 80 1012.6
20260906063719 78 300 2.0 2.0 0.00 0.00 0.00 80 1012.8
20260906063215 78 288 1.0 2.0 0.00 0.00 0.00 81 1012.8
20260906062710 78 300 2.0 2.0 0.00 0.00 0.00 81 1012.8
20260906062209 78 283 2.0 2.0 0.00 0.00 0.00 82 1012.9
20260906061705 78 282 2.0 2.0 0.00 0.00 0.00 84 1013.0
20260906061200 77 305 0.0 1.0 0.00 0.00 0.00 84 1013.0
20260906060656 77 314 0.0 2.0 0.00 0.00 0.00 84 1013.2
20260906060153 77 292 0.0 1.0 0.00 0.00 0.00 84 1013.1
20260906055649 77 286 0.0 0.0 0.00 0.00 0.00 84 1013.2
20260906055144 78 324 0.0 0.0 0.00 0.00 0.00 83 1013.2
20260906054639 78 316 0.0 1.0 0.00 0.00 0.00 83 1013.2
20260906054134 78 315 0.0 1.0 0.00 0.00 0.00 82 1013.2
20260906053632 78 313 1.0 1.0 0.00 0.00 0.00 82 1013.2
20260906053131 78 287 2.0 2.0 0.00 0.00 0.00 82 1013.2
20260906052627 78 297 0.0 1.0 0.00 0.00 0.00 82 1013.0
20260906052123 78 273 0.0 1.0 0.00 0.00 0.00 82 1013.1
20260906051619 78 304 1.0 1.0 0.00 0.00 0.00 82 1013.1
20260906051114 78 283 1.0 2.0 0.00 0.00 0.00 82 1013.1
20260906050610 78 300 1.0 1.0 0.00 0.00 0.00 82 1012.9
20260906050105 78 300 0.0 1.0 0.00 0.00 0.00 81 1013.2
20260906045603 79 341 1.0 1.0 0.00 0.00 0.00 81 1013.1
20260906045058 79 300 0.0 1.0 0.00 0.00 0.00 80 1013.0
20260906044555 80 308 2.0 2.0 0.00 0.00 0.00 79 1013.0
20260906044054 80 297 2.0 2.0 0.00 0.00 0.00 79 1013.0
20260906043550 80 283 1.0 2.0 0.00 0.00 0.00 78 1012.9
20260906043047 80 278 2.0 2.0 0.00 0.00 0.00 78 1012.9
20260906042545 80 286 2.0 2.0 0.00 0.00 0.00 78 1013.1
20260906042040 80 302 2.0 2.0 0.00 0.00 0.00 77 1012.9
20260906041536 80 327 1.0 2.0 0.00 0.00 0.00 77 1012.9
20260906041031 80 302 1.0 2.0 0.00 0.00 0.00 77 1013.0
20260906040526 81 306 1.0 2.0 0.00 0.00 0.00 77 1013.0
20260906040022 81 305 1.0 2.0 0.00 0.00 0.00 77 1013.0
20260906035516 80 292 2.0 2.0 0.00 0.00 0.00 77 1013.1
20260906035013 81 300 2.0 2.0 0.00 0.00 0.00 77 1012.9
20260906034512 81 304 1.0 2.0 0.00 0.00 0.00 76 1012.8
20260906034007 80 287 0.0 1.0 0.00 0.00 0.00 77 1012.9
20260906033502 81 297 1.0 1.0 0.00 0.00 0.00 78 1012.7
20260906032958 81 346 1.0 2.0 0.00 0.00 0.00 77 1012.8
20260906032455 81 257 1.0 2.0 0.00 0.00 0.00 76 1012.8
20260906031954 81 340 0.0 0.0 0.00 0.00 0.00 76 1012.8
20260906031450 81 295 1.0 2.0 0.00 0.00 0.00 76 1012.6
20260906030945 81 300 0.0 1.0 0.00 0.00 0.00 75 1012.6
20260906030439 82 295 1.0 2.0 0.00 0.00 0.00 75 1012.7
20260906025934 82 277 2.0 3.0 0.00 0.00 0.00 75 1012.5
20260906025433 80 282 2.0 2.0 0.00 0.00 0.00 76 1012.6
20260906024932 80 296 2.0 2.0 0.00 0.00 0.00 77 1012.5
20260906024432 81 303 1.0 2.0 0.00 0.00 0.00 76 1012.6
20260906023927 81 296 1.0 2.0 0.00 0.00 0.00 75 1012.4
20260906023424 82 293 2.0 4.0 0.00 0.00 0.00 74 1012.3
20260906022924 82 280 2.0 3.0 0.00 0.00 0.00 73 1012.3
20260906022419 82 285 2.0 2.0 0.00 0.00 0.00 73 1012.3
20260906021915 82 288 2.0 2.0 0.00 0.00 0.00 73 1012.2
20260906021414 82 275 2.0 2.0 0.00 0.00 0.00 73 1012.2
20260906020908 82 298 1.0 2.0 0.00 0.00 0.00 73 1012.3
20260906020403 83 294 2.0 2.0 0.00 0.00 0.00 73 1012.2
20260906015857 83 4 0.0 2.0 0.00 0.00 0.00 72 1012.3
20260906015357 83 296 2.0 2.0 0.00 0.00 0.00 72 1012.1
20260906014856 82 233 0.0 2.0 0.00 0.00 0.00 73 1012.1
20260906014356 83 56 2.0 2.0 0.00 0.00 0.00 75 1012.3
20260906013853 84 302 2.0 2.0 0.00 0.00 0.00 72 1011.8
20260906013348 84 300 2.0 2.0 0.00 0.00 0.00 70 1011.8
20260906012843 84 302 2.0 3.0 0.00 0.00 0.00 70 1011.8
20260906012338 85 291 2.0 2.0 0.00 0.00 0.00 67 1011.8
20260906011838 86 302 2.0 2.0 0.00 0.00 0.00 66 1011.6
20260906011333 86 275 2.0 2.0 0.00 0.00 0.00 66 1011.7
20260906010829 86 294 2.0 2.0 0.00 0.00 0.00 66 1011.5
20260906010325 86 293 2.0 2.0 0.00 0.00 0.00 66 1011.7
20260906005820 86 303 1.0 2.0 0.00 0.00 0.00 68 1011.9
20260906005319 86 300 2.0 2.0 0.00 0.00 0.00 67 1011.7
20260906004818 85 293 2.0 2.0 0.00 0.00 0.00 69 1011.6
20260906004318 85 300 2.0 2.0 0.00 0.00 0.00 68 1011.8
20260906003813 85 315 1.0 2.0 0.00 0.00 0.00 72 1012.0
20260906003309 86 298 2.0 2.0 0.00 0.00 0.00 72 1011.6
20260906002804 86 295 2.0 2.0 0.00 0.00 0.00 71 1011.6
20260906002306 87 314 1.0 2.0 0.00 0.00 0.00 69 1011.6
20260906001759 88 315 0.0 1.0 0.00 0.00 0.00 66 1011.7
20260906001254 88 319 1.0 2.0 0.00 0.00 0.00 64 1011.7
20260906000749 88 316 1.0 2.0 0.00 0.00 0.00 64 1011.7
20260906000243 89 300 2.0 2.0 0.00 0.00 0.00 62 1011.7
20260905235738 89 289 2.0 2.0 0.00 0.00 0.00 63 1011.9
20260905235238 89 291 1.0 2.0 0.00 0.00 0.00 64 1011.8
20260905234734 90 299 1.0 2.0 0.00 0.00 0.00 63 1011.8
20260905234229 90 300 1.0 1.0 0.00 0.00 0.00 61 1011.9
20260905233724 90 303 1.0 2.0 0.00 0.00 0.00 61 1011.9
20260905233223 90 302 2.0 2.0 0.00 0.00 0.00 59 1011.8
20260905232718 90 298 2.0 3.0 0.00 0.00 0.00 61 1011.9
20260905232214 90 284 2.0 2.0 0.00 0.00 0.00 63 1011.8
20260905231710 90 299 2.0 2.0 0.00 0.00 0.00 63 1011.7
20260905231205 91 311 1.0 2.0 0.00 0.00 0.00 62 1011.8
20260905230701 92 341 1.0 2.0 0.00 0.00 0.00 59 1011.7
20260905230159 92 306 1.0 2.0 0.00 0.00 0.00 55 1011.6
20260905225658 92 328 0.0 2.0 0.00 0.00 0.00 57 1011.7
20260905225154 91 296 1.0 2.0 0.00 0.00 0.00 64 1011.7
20260905224654 92 348 4.0 4.0 0.00 0.00 0.00 63 1011.7
20260905224153 93 336 1.0 1.0 0.00 0.00 0.00 57 1011.6
20260905223650 93 300 1.0 2.0 0.00 0.00 0.00 59 1011.7
20260905223147 94 358 0.0 1.0 0.00 0.00 0.00 52 1011.8
20260905222642 94 339 1.0 2.0 0.00 0.00 0.00 50 1011.6
20260905222137 95 340 2.0 2.0 0.00 0.00 0.00 50 1011.5
20260905221632 96 319 0.0 1.0 0.00 0.00 0.00 47 1011.6
20260905221129 96 319 1.0 2.0 0.00 0.00 0.00 47 1011.5
20260905220624 97 333 1.0 2.0 0.00 0.00 0.00 47 1011.8
20260905220120 98 341 2.0 3.0 0.00 0.00 0.00 44 1011.7
20260905215620 100 330 3.0 4.0 0.00 0.00 0.00 40 1011.7
20260905215116 101 288 3.0 4.0 0.00 0.00 0.00 38 1011.6
20260905214612 102 294 3.0 4.0 0.00 0.00 0.00 37 1011.7
20260905214112 102 300 2.0 4.0 0.00 0.00 0.00 37 1011.9
20260905213607 102 276 4.0 5.0 0.00 0.00 0.00 37 1011.7
20260905213102 102 289 3.0 4.0 0.00 0.00 0.00 39 1011.8
20260905212602 103 310 3.0 3.0 0.00 0.00 0.00 37 1011.8
20260905212102 102 272 2.0 3.0 0.00 0.00 0.00 35 1011.8
20260905211557 102 266 5.0 5.0 0.00 0.00 0.00 36 1011.8
20260905211052 103 329 2.0 3.0 0.00 0.00 0.00 37 1011.9
20260905210548 103 315 3.0 4.0 0.00 0.00 0.00 36 1012.0
20260905210043 102 335 2.0 3.0 0.00 0.00 0.00 36 1012.0
20260905205543 103 279 2.0 4.0 0.00 0.00 0.00 37 1012.3
20260905205042 102 300 4.0 4.0 0.00 0.00 0.00 35 1012.2
20260905204537 103 256 2.0 2.0 0.00 0.00 0.00 35 1012.1
20260905204032 101 287 2.0 4.0 0.00 0.00 0.00 41 1012.2
20260905203532 101 347 2.0 4.0 0.00 0.00 0.00 39 1012.3
20260905203027 102 288 2.0 4.0 0.00 0.00 0.00 39 1012.2
20260905202522 100 340 1.0 5.0 0.00 0.00 0.00 43 1012.3
20260905202018 100 295 3.0 3.0 0.00 0.00 0.00 39 1012.2
20260905201514 100 284 3.0 6.0 0.00 0.00 0.00 40 1012.5
20260905201013 102 299 4.0 4.0 0.00 0.00 0.00 40 1012.5
20260905200509 103 311 1.0 2.0 0.00 0.00 0.00 40 1012.5
20260905200008 100 25 2.0 5.0 0.00 0.00 0.00 37 1012.7
20260905195502 101 257 2.0 6.0 0.00 0.00 0.00 37 1012.9
20260905194958 102 342 2.0 4.0 0.00 0.00 0.00 38 1012.8
20260905194457 102 46 2.0 3.0 0.00 0.00 0.00 38 1013.2
20260905193957 101 321 3.0 4.0 0.00 0.00 0.00 40 1013.1
20260905193452 101 317 3.0 6.0 0.00 0.00 0.00 39 1013.1
20260905192947 101 354 3.0 6.0 0.00 0.00 0.00 39 1013.2
20260905192442 103 288 2.0 5.0 0.00 0.00 0.00 37 1013.2
20260905191938 101 244 2.0 2.0 0.00 0.00 0.00 37 1013.3
20260905191438 101 288 6.0 6.0 0.00 0.00 0.00 40 1013.3
20260905190937 101 293 3.0 4.0 0.00 0.00 0.00 40 1013.5
20260905190435 101 350 2.0 3.0 0.00 0.00 0.00 40 1013.6
20260905185934 101 349 2.0 4.0 0.00 0.00 0.00 40 1013.6
20260905185429 100 242 2.0 6.0 0.00 0.00 0.00 40 1013.5
20260905184928 101 274 2.0 5.0 0.00 0.00 0.00 40 1013.7
20260905184423 101 287 3.0 3.0 0.00 0.00 0.00 43 1013.7
20260905183921 100 288 2.0 3.0 0.00 0.00 0.00 41 1013.7
20260905183416 100 325 0.0 3.0 0.00 0.00 0.00 45 1013.6
20260905182911 100 283 1.0 4.0 0.00 0.00 0.00 42 1013.6
20260905182410 99 3 2.0 2.0 0.00 0.00 0.00 42 1013.9
20260905181907 99 354 3.0 4.0 0.00 0.00 0.00 42 1013.8
20260905181406 99 340 3.0 7.0 0.00 0.00 0.00 41 1014.0
20260905180905 100 304 3.0 5.0 0.00 0.00 0.00 41 1013.9
20260905180400 100 175 0.0 3.0 0.00 0.00 0.00 42 1014.1
20260905175855 100 211 1.0 2.0 0.00 0.00 0.00 40 1014.2
20260905175355 100 350 2.0 3.0 0.00 0.00 0.00 39 1014.3
20260905174850 99 21 3.0 6.0 0.00 0.00 0.00 39 1014.4
20260905174346 98 303 3.0 5.0 0.00 0.00 0.00 41 1014.4
20260905173841 98 348 3.0 4.0 0.00 0.00 0.00 46 1014.3
20260905173337 99 282 4.0 5.0 0.00 0.00 0.00 42 1014.4
20260905172832 98 311 2.0 5.0 0.00 0.00 0.00 46 1014.4
20260905172330 99 211 3.0 5.0 0.00 0.00 0.00 42 1014.4
20260905171826 98 305 4.0 6.0 0.00 0.00 0.00 48 1014.6
20260905171323 97 285 5.0 5.0 0.00 0.00 0.00 45 1014.7
20260905170819 98 300 2.0 5.0 0.00 0.00 0.00 46 1014.8
20260905170314 99 299 2.0 2.0 0.00 0.00 0.00 44 1014.7
20260905165813 96 292 5.0 5.0 0.00 0.00 0.00 48 1014.8
20260905165310 96 256 5.0 6.0 0.00 0.00 0.00 46 1014.9
20260905164809 96 286 4.0 6.0 0.00 0.00 0.00 47 1014.9
20260905164309 96 273 3.0 4.0 0.00 0.00 0.00 49 1015.0
20260905163805 96 272 5.0 7.0 0.00 0.00 0.00 45 1015.0
20260905163301 97 270 4.0 6.0 0.00 0.00 0.00 45 1015.0
20260905162757 97 282 5.0 5.0 0.00 0.00 0.00 47 1015.2
20260905162256 96 312 2.0 4.0 0.00 0.00 0.00 51 1014.9
20260905161751 98 331 3.0 3.0 0.00 0.00 0.00 46 1015.1
20260905161250 95 311 2.0 4.0 0.00 0.00 0.00 50 1015.2
20260905160748 96 288 4.0 4.0 0.00 0.00 0.00 49 1015.1
20260905160243 97 359 1.0 3.0 0.00 0.00 0.00 48 1015.3
20260905155738 95 289 3.0 4.0 0.00 0.00 0.00 49 1015.3
20260905155237 96 302 3.0 5.0 0.00 0.00 0.00 52 1015.2
20260905154730 97 277 2.0 2.0 0.00 0.00 0.00 48 1015.3
20260905154227 96 338 0.0 1.0 0.00 0.00 0.00 52 1015.3
20260905153717 94 291 2.0 3.0 0.00 0.00 0.00 53 1015.2
20260905153213 94 271 4.0 5.0 0.00 0.00 0.00 53 1015.3
20260905152713 93 261 4.0 6.0 0.00 0.00 0.00 54 1015.3
20260905152207 94 289 3.0 6.0 0.00 0.00 0.00 55 1015.1
20260905151707 95 291 2.0 2.0 0.00 0.00 0.00 54 1015.3
20260905151203 95 261 1.0 2.0 0.00 0.00 0.00 52 1015.4
20260905150658 93 246 1.0 2.0 0.00 0.00 0.00 57 1015.2
20260905150156 93 253 2.0 2.0 0.00 0.00 0.00 57 1015.4
20260905145654 93 293 2.0 3.0 0.00 0.00 0.00 57 1015.3
20260905145149 94 307 3.0 3.0 0.00 0.00 0.00 58 1015.4
20260905144649 92 288 2.0 3.0 0.00 0.00 0.00 59 1015.2
20260905144149 92 10 2.0 3.0 0.00 0.00 0.00 58 1015.3
20260905143648 93 275 2.0 2.0 0.00 0.00 0.00 57 1015.4
20260905143148 91 320 2.0 3.0 0.00 0.00 0.00 63 1015.2
20260905142647 91 344 4.0 4.0 0.00 0.00 0.00 61 1015.2
20260905142147 90 337 3.0 4.0 0.00 0.00 0.00 60 1015.3
20260905141642 89 311 2.0 3.0 0.00 0.00 0.00 61 1015.4
20260905141138 89 270 2.0 2.0 0.00 0.00 0.00 64 1015.3
20260905140633 89 257 0.0 3.0 0.00 0.00 0.00 61 1015.4
20260905140133 89 298 2.0 3.0 0.00 0.00 0.00 60 1015.3
20260905135627 89 333 1.0 2.0 0.00 0.00 0.00 60 1015.3
20260905135123 88 353 1.0 2.0 0.00 0.00 0.00 63 1015.6
20260905134618 88 4 2.0 2.0 0.00 0.00 0.00 64 1015.3
20260905134116 88 338 1.0 2.0 0.00 0.00 0.00 66 1015.5
20260905133613 86 300 1.0 2.0 0.00 0.00 0.00 67 1015.4
20260905133112 85 299 2.0 2.0 0.00 0.00 0.00 69 1015.4
20260905132612 86 318 2.0 2.0 0.00 0.00 0.00 71 1015.4
20260905132107 85 326 1.0 2.0 0.00 0.00 0.00 71 1015.2
20260905131602 84 1 2.0 2.0 0.00 0.00 0.00 72 1015.4
20260905131057 84 349 2.0 2.0 0.00 0.00 0.00 73 1015.3
20260905130556 84 327 1.0 2.0 0.00 0.00 0.00 74 1015.3
20260905130051 83 316 0.0 2.0 0.00 0.00 0.00 82 1015.2
20260905125551 81 333 2.0 2.0 0.00 0.00 0.00 85 1015.2
20260905125047 80 315 0.0 1.0 0.00 0.00 0.00 88 1015.3
20260905124543 79 319 0.0 2.0 0.00 0.00 0.00 88 1015.1
20260905124039 78 293 0.0 2.0 0.00 0.00 0.00 88 1015.1